Location: Unspecified
(0.0000°N, 0.0000°E)
Time: 03:42:02
(UTC+00:00)

Envisat - Pass Details

Date: 17 November 2019
Orbit: 764 x 766 km, 98.1° (Epoch: 11 November)

Event Time Altitude Azimuth Distance (km) Brightness Sun altitude
Rises 18:16:57 0° 164° (SSE) 3,230 6.3 -7.6°
Reaches altitude 10° 18:19:16 10° 161° (SSE) 2,301 5.5 -8.1°
Maximum altitude 18:24:19 69° 78° (ENE) 816 2.9 -9.3°
Drops below altitude 10° 18:29:20 10° 355° (N) 2,290 5.3 -10.5°
Sets 18:31:38 0° 353° (N) 3,213 6.1 -11.0°
